owner,sensor,date,latitude,longitude,vertical_datum,sea_water_temperature,qcFlag 
TABS,ioos:station:wmo:42044:1,2002-09-01T00:00:00Z,26.1914,-97.0507,-2.0,28.77,11111222 
TABS,ioos:station:wmo:42044:1,2002-09-01T00:30:00Z,26.1914,-97.0507,-2.0,28.73,11111222 
TABS,ioos:station:wmo:42044:1,2002-09-01T01:00:00Z,26.1914,-97.0507,-2.0,28.73,11111222 
TABS,ioos:station:wmo:42044:1,2002-09-01T01:30:00Z,26.1914,-97.0507,-2.0,28.76,11111222 
TABS,ioos:station:wmo:42044:1,2002-09-01T02:00:00Z,26.1914,-97.0507,-2.0,28.73,11111222 
TABS,ioos:station:wmo:42044:1,2002-09-01T02:30:00Z,26.1914,-97.0507,-2.0,28.71,11111222 
TABS,ioos:station:wmo:42044:1,2002-09-01T03:00:00Z,26.1914,-97.0507,-2.0,28.67,11111222 
TABS,ioos:station:wmo:42044:1,2002-09-01T03:30:00Z,26.1914,-97.0507,-2.0,28.68,11111222 
TABS,ioos:station:wmo:42044:1,2002-09-01T13:30:00Z,26.1914,-97.0507,-2.0,28.59,11111222 
TABS,ioos:station:wmo:42044:1,2002-09-01T14:00:00Z,26.1914,-97.0507,-2.0,28.59,11111222 
TABS,ioos:station:wmo:42044:1,2002-09-01T14:30:00Z,26.1914,-97.0507,-2.0,28.62,11111222 
TABS,ioos:station:wmo:42044:1,2002-09-01T15:00:00Z,26.1914,-97.0507,-2.0,28.67,11111222 
TABS,ioos:station:wmo:42044:1,2002-09-01T15:30:00Z,26.1914,-97.0507,-2.0,28.7,11111222 
TABS,ioos:station:wmo:42044:1,2002-09-01T16:00:00Z,26.1914,-97.0507,-2.0,28.73,11111222 
TABS,ioos:station:wmo:42044:1,2002-09-01T16:30:00Z,26.1914,-97.0507,-2.0,28.77,11111222 
TABS,ioos:station:wmo:42044:1,2002-09-01T17:00:00Z,26.1914,-97.0507,-2.0,28.82,11111222 
TABS,ioos:station:wmo:42044:1,2002-09-01T17:30:00Z,26.1914,-97.0507,-2.0,28.86,11111222 
TABS,ioos:station:wmo:42044:1,2002-09-01T18:00:00Z,26.1914,-97.0507,-2.0,28.78,11111222 
TABS,ioos:station:wmo:42044:1,2002-09-01T18:30:00Z,26.1914,-97.0507,-2.0,28.88,11111222 
TABS,ioos:station:wmo:42044:1,2002-09-01T19:00:00Z,26.1914,-97.0507,-2.0,28.88,11111222 
TABS,ioos:station:wmo:42044:1,2002-09-01T19:30:00Z,26.1914,-97.0507,-2.0,28.89,11111222 
TABS,ioos:station:wmo:42044:1,2002-09-01T20:00:00Z,26.1914,-97.0507,-2.0,28.94,11111222 
TABS,ioos:station:wmo:42044:1,2002-09-01T20:30:00Z,26.1914,-97.0507,-2.0,28.93,11111222 
TABS,ioos:station:wmo:42044:1,2002-09-01T21:00:00Z,26.1914,-97.0507,-2.0,28.91,11111222 
TABS,ioos:station:wmo:42044:1,2002-09-01T21:30:00Z,26.1914,-97.0507,-2.0,28.9,11111222 
TABS,ioos:station:wmo:42044:1,2002-09-01T22:00:00Z,26.1914,-97.0507,-2.0,28.82,11111222 
TABS,ioos:station:wmo:42044:1,2002-09-01T22:30:00Z,26.1914,-97.0507,-2.0,28.78,11111222 
TABS,ioos:station:wmo:42044:1,2002-09-01T23:00:00Z,26.1914,-97.0507,-2.0,28.7,11111222 
TABS,ioos:station:wmo:42044:1,2002-09-01T23:30:00Z,26.1914,-97.0507,-2.0,28.72,11111222 
TABS,ioos:station:wmo:42044:1,2002-09-02T00:00:00Z,26.1914,-97.0507,-2.0,28.64,11111222 
TABS,ioos:station:wmo:42044:1,2002-09-02T00:30:00Z,26.1914,-97.0507,-2.0,28.64,11111222 
TABS,ioos:station:wmo:42044:1,2002-09-02T01:00:00Z,26.1914,-97.0507,-2.0,28.61,11111222 
TABS,ioos:station:wmo:42044:1,2002-09-02T01:30:00Z,26.1914,-97.0507,-2.0,28.62,11111222 
TABS,ioos:station:wmo:42044:1,2002-09-02T02:00:00Z,26.1914,-97.0507,-2.0,28.62,11111222 
TABS,ioos:station:wmo:42044:1,2002-09-02T02:30:00Z,26.1914,-97.0507,-2.0,28.63,11111222 
TABS,ioos:station:wmo:42044:1,2002-09-02T03:00:00Z,26.1914,-97.0507,-2.0,28.62,11111222 
TABS,ioos:station:wmo:42044:1,2002-09-02T03:30:00Z,26.1914,-97.0507,-2.0,28.66,11111222 
TABS,ioos:station:wmo:42044:1,2002-09-02T13:00:00Z,26.1914,-97.0507,-2.0,28.54,11111222 
TABS,ioos:station:wmo:42044:1,2002-09-02T13:30:00Z,26.1914,-97.0507,-2.0,28.55,11111222 
TABS,ioos:station:wmo:42044:1,2002-09-02T14:00:00Z,26.1914,-97.0507,-2.0,28.55,11111222 
TABS,ioos:station:wmo:42044:1,2002-09-02T14:30:00Z,26.1914,-97.0507,-2.0,28.56,11111222 
TABS,ioos:station:wmo:42044:1,2002-09-02T15:30:00Z,26.1914,-97.0507,-2.0,28.59,11111222 
TABS,ioos:station:wmo:42044:1,2002-09-02T16:00:00Z,26.1914,-97.0507,-2.0,28.6,11111222 
TABS,ioos:station:wmo:42044:1,2002-09-02T16:30:00Z,26.1914,-97.0507,-2.0,28.66,11111222 
TABS,ioos:station:wmo:42044:1,2002-09-02T17:00:00Z,26.1914,-97.0507,-2.0,28.67,11111222 
TABS,ioos:station:wmo:42044:1,2002-09-02T17:30:00Z,26.1914,-97.0507,-2.0,28.71,11111222 
TABS,ioos:station:wmo:42044:1,2002-09-02T18:30:00Z,26.1914,-97.0507,-2.0,28.79,11111222 
TABS,ioos:station:wmo:42044:1,2002-09-02T19:00:00Z,26.1914,-97.0507,-2.0,28.84,11111222 
TABS,ioos:station:wmo:42044:1,2002-09-02T19:30:00Z,26.1914,-97.0507,-2.0,28.84,11111222 
TABS,ioos:station:wmo:42044:1,2002-09-02T20:00:00Z,26.1914,-97.0507,-2.0,28.89,11111222 
TABS,ioos:station:wmo:42044:1,2002-09-02T20:30:00Z,26.1914,-97.0507,-2.0,28.9,11111222 
TABS,ioos:station:wmo:42044:1,2002-09-02T21:30:00Z,26.1914,-97.0507,-2.0,28.91,11111222 
TABS,ioos:station:wmo:42044:1,2002-09-02T22:00:00Z,26.1914,-97.0507,-2.0,28.88,11111222 
TABS,ioos:station:wmo:42044:1,2002-09-02T22:30:00Z,26.1914,-97.0507,-2.0,28.98,11111222 
TABS,ioos:station:wmo:42044:1,2002-09-02T23:00:00Z,26.1914,-97.0507,-2.0,28.97,11111222 
TABS,ioos:station:wmo:42044:1,2002-09-02T23:30:00Z,26.1914,-97.0507,-2.0,28.96,11111222 
TABS,ioos:station:wmo:42044:1,2002-09-03T00:30:00Z,26.1914,-97.0507,-2.0,28.99,11111222 
TABS,ioos:station:wmo:42044:1,2002-09-03T01:00:00Z,26.1914,-97.0507,-2.0,29.03,11111222 
TABS,ioos:station:wmo:42044:1,2002-09-03T01:30:00Z,26.1914,-97.0507,-2.0,29.0,11111222 
TABS,ioos:station:wmo:42044:1,2002-09-03T02:00:00Z,26.1914,-97.0507,-2.0,28.98,11111222 
TABS,ioos:station:wmo:42044:1,2002-09-03T02:30:00Z,26.1914,-97.0507,-2.0,28.93,11111222 
TABS,ioos:station:wmo:42044:1,2002-09-03T13:00:00Z,26.1914,-97.0507,-2.0,28.77,11111222 
TABS,ioos:station:wmo:42044:1,2002-09-03T13:30:00Z,26.1914,-97.0507,-2.0,28.78,11111222 
TABS,ioos:station:wmo:42044:1,2002-09-03T14:00:00Z,26.1914,-97.0507,-2.0,28.79,11111222 
TABS,ioos:station:wmo:42044:1,2002-09-03T14:30:00Z,26.1914,-97.0507,-2.0,28.78,11111222 
TABS,ioos:station:wmo:42044:1,2002-09-03T15:00:00Z,26.1914,-97.0507,-2.0,28.8,11111222 
TABS,ioos:station:wmo:42044:1,2002-09-03T15:30:00Z,26.1914,-97.0507,-2.0,28.85,11111222 
TABS,ioos:station:wmo:42044:1,2002-09-03T16:00:00Z,26.1914,-97.0507,-2.0,28.88,11111222 
TABS,ioos:station:wmo:42044:1,2002-09-03T16:30:00Z,26.1914,-97.0507,-2.0,28.93,11111222 
TABS,ioos:station:wmo:42044:1,2002-09-03T17:00:00Z,26.1914,-97.0507,-2.0,28.98,11111222 
TABS,ioos:station:wmo:42044:1,2002-09-03T17:30:00Z,26.1914,-97.0507,-2.0,29.04,11111222 
TABS,ioos:station:wmo:42044:1,2002-09-03T18:00:00Z,26.1914,-97.0507,-2.0,29.09,11111222 
TABS,ioos:station:wmo:42044:1,2002-09-03T18:30:00Z,26.1914,-97.0507,-2.0,29.17,11111222 
TABS,ioos:station:wmo:42044:1,2002-09-03T19:00:00Z,26.1914,-97.0507,-2.0,29.26,11111222 
TABS,ioos:station:wmo:42044:1,2002-09-03T19:30:00Z,26.1914,-97.0507,-2.0,29.22,11111222 
TABS,ioos:station:wmo:42044:1,2002-09-03T20:00:00Z,26.1914,-97.0507,-2.0,29.24,11111222 
TABS,ioos:station:wmo:42044:1,2002-09-03T20:30:00Z,26.1914,-97.0507,-2.0,29.23,11111222 
TABS,ioos:station:wmo:42044:1,2002-09-03T21:00:00Z,26.1914,-97.0507,-2.0,29.28,11111222 
TABS,ioos:station:wmo:42044:1,2002-09-03T21:30:00Z,26.1914,-97.0507,-2.0,29.28,11111222 
TABS,ioos:station:wmo:42044:1,2002-09-03T22:00:00Z,26.1914,-97.0507,-2.0,29.24,11111222 
TABS,ioos:station:wmo:42044:1,2002-09-03T22:30:00Z,26.1914,-97.0507,-2.0,29.25,11111222 
TABS,ioos:station:wmo:42044:1,2002-09-03T23:00:00Z,26.1914,-97.0507,-2.0,29.21,11111222 
TABS,ioos:station:wmo:42044:1,2002-09-03T23:30:00Z,26.1914,-97.0507,-2.0,29.2,11111222 
TABS,ioos:station:wmo:42044:1,2002-09-04T00:00:00Z,26.1914,-97.0507,-2.0,29.18,11111222 
TABS,ioos:station:wmo:42044:1,2002-09-04T01:00:00Z,26.1914,-97.0507,-2.0,29.17,11111222 
TABS,ioos:station:wmo:42044:1,2002-09-04T01:30:00Z,26.1914,-97.0507,-2.0,29.14,11111222 
TABS,ioos:station:wmo:42044:1,2002-09-04T02:00:00Z,26.1914,-97.0507,-2.0,29.1,11111222 
TABS,ioos:station:wmo:42044:1,2002-09-04T02:30:00Z,26.1914,-97.0507,-2.0,29.07,11111222 
TABS,ioos:station:wmo:42044:1,2002-09-04T03:00:00Z,26.1914,-97.0507,-2.0,29.06,11111222 
TABS,ioos:station:wmo:42044:1,2002-09-04T13:00:00Z,26.1914,-97.0507,-2.0,29.26,11111222 
TABS,ioos:station:wmo:42044:1,2002-09-04T13:30:00Z,26.1914,-97.0507,-2.0,29.24,11111222 
TABS,ioos:station:wmo:42044:1,2002-09-04T14:00:00Z,26.1914,-97.0507,-2.0,29.22,11111222 
TABS,ioos:station:wmo:42044:1,2002-09-04T14:30:00Z,26.1914,-97.0507,-2.0,29.22,11111222 
TABS,ioos:station:wmo:42044:1,2002-09-04T15:00:00Z,26.1914,-97.0507,-2.0,29.22,11111222 
TABS,ioos:station:wmo:42044:1,2002-09-04T15:30:00Z,26.1914,-97.0507,-2.0,29.22,11111222 
TABS,ioos:station:wmo:42044:1,2002-09-04T16:00:00Z,26.1914,-97.0507,-2.0,29.21,11111222 
TABS,ioos:station:wmo:42044:1,2002-09-04T16:30:00Z,26.1914,-97.0507,-2.0,29.2,11111222 
TABS,ioos:station:wmo:42044:1,2002-09-04T17:00:00Z,26.1914,-97.0507,-2.0,29.23,11111222 
TABS,ioos:station:wmo:42044:1,2002-09-04T17:30:00Z,26.1914,-97.0507,-2.0,29.29,11111222 
TABS,ioos:station:wmo:42044:1,2002-09-04T18:00:00Z,26.1914,-97.0507,-2.0,29.28,11111222 
TABS,ioos:station:wmo:42044:1,2002-09-04T18:30:00Z,26.1914,-97.0507,-2.0,29.3,11111222 
TABS,ioos:station:wmo:42044:1,2002-09-04T19:00:00Z,26.1914,-97.0507,-2.0,29.28,11111222 
TABS,ioos:station:wmo:42044:1,2002-09-04T19:30:00Z,26.1914,-97.0507,-2.0,29.31,11111222 
TABS,ioos:station:wmo:42044:1,2002-09-04T20:00:00Z,26.1914,-97.0507,-2.0,29.44,11111222 
TABS,ioos:station:wmo:42044:1,2002-09-04T20:30:00Z,26.1914,-97.0507,-2.0,29.41,11111222 
TABS,ioos:station:wmo:42044:1,2002-09-04T21:00:00Z,26.1914,-97.0507,-2.0,29.48,11111222 
TABS,ioos:station:wmo:42044:1,2002-09-04T21:30:00Z,26.1914,-97.0507,-2.0,29.49,11111222 
TABS,ioos:station:wmo:42044:1,2002-09-04T22:00:00Z,26.1914,-97.0507,-2.0,29.52,11111222 
TABS,ioos:station:wmo:42044:1,2002-09-04T22:30:00Z,26.1914,-97.0507,-2.0,29.47,11111222 
TABS,ioos:station:wmo:42044:1,2002-09-04T23:00:00Z,26.1914,-97.0507,-2.0,29.39,11111222 
TABS,ioos:station:wmo:42044:1,2002-09-04T23:30:00Z,26.1914,-97.0507,-2.0,29.28,11111222 
TABS,ioos:station:wmo:42044:1,2002-09-05T00:00:00Z,26.1914,-97.0507,-2.0,29.2,11111222 
TABS,ioos:station:wmo:42044:1,2002-09-05T00:30:00Z,26.1914,-97.0507,-2.0,29.13,11111222 
TABS,ioos:station:wmo:42044:1,2002-09-05T01:00:00Z,26.1914,-97.0507,-2.0,29.07,11111222 
TABS,ioos:station:wmo:42044:1,2002-09-05T01:30:00Z,26.1914,-97.0507,-2.0,29.08,11111222 
TABS,ioos:station:wmo:42044:1,2002-09-05T02:00:00Z,26.1914,-97.0507,-2.0,29.12,11111222 
TABS,ioos:station:wmo:42044:1,2002-09-05T13:30:00Z,26.1914,-97.0507,-2.0,29.09,11111222 
TABS,ioos:station:wmo:42044:1,2002-09-05T14:00:00Z,26.1914,-97.0507,-2.0,29.1,11111222 
TABS,ioos:station:wmo:42044:1,2002-09-05T14:30:00Z,26.1914,-97.0507,-2.0,29.13,11111222 
TABS,ioos:station:wmo:42044:1,2002-09-05T15:00:00Z,26.1914,-97.0507,-2.0,29.16,11111222 
TABS,ioos:station:wmo:42044:1,2002-09-05T15:30:00Z,26.1914,-97.0507,-2.0,29.18,11111222 
TABS,ioos:station:wmo:42044:1,2002-09-05T16:00:00Z,26.1914,-97.0507,-2.0,29.19,11111222 
TABS,ioos:station:wmo:42044:1,2002-09-05T16:30:00Z,26.1914,-97.0507,-2.0,29.2,11111222 
TABS,ioos:station:wmo:42044:1,2002-09-05T17:00:00Z,26.1914,-97.0507,-2.0,29.2,11111222 
TABS,ioos:station:wmo:42044:1,2002-09-05T17:30:00Z,26.1914,-97.0507,-2.0,29.21,11111222 
TABS,ioos:station:wmo:42044:1,2002-09-05T18:00:00Z,26.1914,-97.0507,-2.0,29.22,11111222 
TABS,ioos:station:wmo:42044:1,2002-09-05T18:30:00Z,26.1914,-97.0507,-2.0,29.23,11111222 
TABS,ioos:station:wmo:42044:1,2002-09-05T19:00:00Z,26.1914,-97.0507,-2.0,29.25,11111222 
TABS,ioos:station:wmo:42044:1,2002-09-05T19:30:00Z,26.1914,-97.0507,-2.0,29.26,11111222 
TABS,ioos:station:wmo:42044:1,2002-09-05T20:00:00Z,26.1914,-97.0507,-2.0,29.25,11111222 
TABS,ioos:station:wmo:42044:1,2002-09-05T20:30:00Z,26.1914,-97.0507,-2.0,29.23,11111222 
TABS,ioos:station:wmo:42044:1,2002-09-05T21:00:00Z,26.1914,-97.0507,-2.0,29.2,11111222 
TABS,ioos:station:wmo:42044:1,2002-09-05T21:30:00Z,26.1914,-97.0507,-2.0,29.2,11111222 
TABS,ioos:station:wmo:42044:1,2002-09-05T22:00:00Z,26.1914,-97.0507,-2.0,29.23,11111222 
TABS,ioos:station:wmo:42044:1,2002-09-05T22:30:00Z,26.1914,-97.0507,-2.0,29.25,11111222 
TABS,ioos:station:wmo:42044:1,2002-09-05T23:00:00Z,26.1914,-97.0507,-2.0,29.28,11111222 
TABS,ioos:station:wmo:42044:1,2002-09-05T23:30:00Z,26.1914,-97.0507,-2.0,29.31,11111222 
TABS,ioos:station:wmo:42044:1,2002-09-06T00:30:00Z,26.1914,-97.0507,-2.0,29.32,11111222 
TABS,ioos:station:wmo:42044:1,2002-09-06T01:00:00Z,26.1914,-97.0507,-2.0,29.35,11111222 
TABS,ioos:station:wmo:42044:1,2002-09-06T01:30:00Z,26.1914,-97.0507,-2.0,29.39,11111222 
TABS,ioos:station:wmo:42044:1,2002-09-06T02:00:00Z,26.1914,-97.0507,-2.0,29.44,11111222 
TABS,ioos:station:wmo:42044:1,2002-09-06T02:30:00Z,26.1914,-97.0507,-2.0,29.48,11111222 
TABS,ioos:station:wmo:42044:1,2002-09-06T03:00:00Z,26.1914,-97.0507,-2.0,29.53,11111222 
TABS,ioos:station:wmo:42044:1,2002-09-06T13:00:00Z,26.1914,-97.0507,-2.0,29.89,11111222 
TABS,ioos:station:wmo:42044:1,2002-09-06T13:30:00Z,26.1914,-97.0507,-2.0,29.9,11111222 
TABS,ioos:station:wmo:42044:1,2002-09-06T14:00:00Z,26.1914,-97.0507,-2.0,29.91,11111222 
TABS,ioos:station:wmo:42044:1,2002-09-06T14:30:00Z,26.1914,-97.0507,-2.0,29.93,11111222 
TABS,ioos:station:wmo:42044:1,2002-09-06T15:00:00Z,26.1914,-97.0507,-2.0,29.96,11111222 
TABS,ioos:station:wmo:42044:1,2002-09-06T15:30:00Z,26.1914,-97.0507,-2.0,29.99,11111222 
TABS,ioos:station:wmo:42044:1,2002-09-06T16:00:00Z,26.1914,-97.0507,-2.0,30.01,11111222 
TABS,ioos:station:wmo:42044:1,2002-09-06T16:30:00Z,26.1914,-97.0507,-2.0,30.01,11111222 
TABS,ioos:station:wmo:42044:1,2002-09-06T17:00:00Z,26.1914,-97.0507,-2.0,30.02,11111222 
TABS,ioos:station:wmo:42044:1,2002-09-06T17:30:00Z,26.1914,-97.0507,-2.0,30.02,11111222 
TABS,ioos:station:wmo:42044:1,2002-09-06T18:00:00Z,26.1914,-97.0507,-2.0,30.03,11111222 
TABS,ioos:station:wmo:42044:1,2002-09-06T18:30:00Z,26.1914,-97.0507,-2.0,30.03,11111222 
TABS,ioos:station:wmo:42044:1,2002-09-06T19:00:00Z,26.1914,-97.0507,-2.0,30.01,11111222 
TABS,ioos:station:wmo:42044:1,2002-09-06T19:30:00Z,26.1914,-97.0507,-2.0,30.05,11111222 
TABS,ioos:station:wmo:42044:1,2002-09-06T20:00:00Z,26.1914,-97.0507,-2.0,30.05,11111222 
TABS,ioos:station:wmo:42044:1,2002-09-06T20:30:00Z,26.1914,-97.0507,-2.0,29.96,11111222 
TABS,ioos:station:wmo:42044:1,2002-09-06T21:00:00Z,26.1914,-97.0507,-2.0,29.92,11111222 
TABS,ioos:station:wmo:42044:1,2002-09-06T21:30:00Z,26.1914,-97.0507,-2.0,29.9,11111222 
TABS,ioos:station:wmo:42044:1,2002-09-06T22:00:00Z,26.1914,-97.0507,-2.0,29.89,11111222 
TABS,ioos:station:wmo:42044:1,2002-09-06T22:30:00Z,26.1914,-97.0507,-2.0,29.87,11111222 
TABS,ioos:station:wmo:42044:1,2002-09-06T23:00:00Z,26.1914,-97.0507,-2.0,29.88,11111222 
TABS,ioos:station:wmo:42044:1,2002-09-06T23:30:00Z,26.1914,-97.0507,-2.0,29.89,11111222 
TABS,ioos:station:wmo:42044:1,2002-09-07T00:00:00Z,26.1914,-97.0507,-2.0,29.9,11111222 
TABS,ioos:station:wmo:42044:1,2002-09-07T00:30:00Z,26.1914,-97.0507,-2.0,29.9,11111222 
TABS,ioos:station:wmo:42044:1,2002-09-07T01:00:00Z,26.1914,-97.0507,-2.0,29.88,11111222 
TABS,ioos:station:wmo:42044:1,2002-09-07T01:30:00Z,26.1914,-97.0507,-2.0,29.87,11111222 
TABS,ioos:station:wmo:42044:1,2002-09-07T02:00:00Z,26.1914,-97.0507,-2.0,29.87,11111222 
TABS,ioos:station:wmo:42044:1,2002-09-07T02:30:00Z,26.1914,-97.0507,-2.0,29.85,11111222 
TABS,ioos:station:wmo:42044:1,2002-09-07T13:30:00Z,26.1914,-97.0507,-2.0,29.67,11111222 
TABS,ioos:station:wmo:42044:1,2002-09-07T14:00:00Z,26.1914,-97.0507,-2.0,29.69,11111222 
TABS,ioos:station:wmo:42044:1,2002-09-07T14:30:00Z,26.1914,-97.0507,-2.0,29.69,11111222 
TABS,ioos:station:wmo:42044:1,2002-09-07T15:00:00Z,26.1914,-97.0507,-2.0,29.71,11111222 
TABS,ioos:station:wmo:42044:1,2002-09-07T15:30:00Z,26.1914,-97.0507,-2.0,29.73,11111222 
TABS,ioos:station:wmo:42044:1,2002-09-07T16:00:00Z,26.1914,-97.0507,-2.0,29.75,11111222 
TABS,ioos:station:wmo:42044:1,2002-09-07T16:30:00Z,26.1914,-97.0507,-2.0,29.79,11111222 
TABS,ioos:station:wmo:42044:1,2002-09-07T17:00:00Z,26.1914,-97.0507,-2.0,29.77,11111222 
TABS,ioos:station:wmo:42044:1,2002-09-07T17:30:00Z,26.1914,-97.0507,-2.0,29.64,11111222 
TABS,ioos:station:wmo:42044:1,2002-09-07T18:00:00Z,26.1914,-97.0507,-2.0,29.67,11111222 
TABS,ioos:station:wmo:42044:1,2002-09-07T18:30:00Z,26.1914,-97.0507,-2.0,29.66,11111222 
TABS,ioos:station:wmo:42044:1,2002-09-07T19:00:00Z,26.1914,-97.0507,-2.0,29.68,11111222 
TABS,ioos:station:wmo:42044:1,2002-09-07T19:30:00Z,26.1914,-97.0507,-2.0,29.63,11111222 
TABS,ioos:station:wmo:42044:1,2002-09-07T20:00:00Z,26.1914,-97.0507,-2.0,29.83,11111222 
TABS,ioos:station:wmo:42044:1,2002-09-07T20:30:00Z,26.1914,-97.0507,-2.0,29.99,11111222 
TABS,ioos:station:wmo:42044:1,2002-09-07T21:00:00Z,26.1914,-97.0507,-2.0,30.01,11111222 
TABS,ioos:station:wmo:42044:1,2002-09-07T21:30:00Z,26.1914,-97.0507,-2.0,29.95,11111222 
TABS,ioos:station:wmo:42044:1,2002-09-07T22:00:00Z,26.1914,-97.0507,-2.0,29.92,11111222 
TABS,ioos:station:wmo:42044:1,2002-09-07T22:30:00Z,26.1914,-97.0507,-2.0,29.93,11111222 
TABS,ioos:station:wmo:42044:1,2002-09-07T23:00:00Z,26.1914,-97.0507,-2.0,29.85,11111222 
TABS,ioos:station:wmo:42044:1,2002-09-07T23:30:00Z,26.1914,-97.0507,-2.0,29.83,11111222 
TABS,ioos:station:wmo:42044:1,2002-09-08T00:00:00Z,26.1914,-97.0507,-2.0,29.83,11111222 
TABS,ioos:station:wmo:42044:1,2002-09-08T00:30:00Z,26.1914,-97.0507,-2.0,29.79,11111222 
TABS,ioos:station:wmo:42044:1,2002-09-08T01:00:00Z,26.1914,-97.0507,-2.0,29.79,11111222 
TABS,ioos:station:wmo:42044:1,2002-09-08T01:30:00Z,26.1914,-97.0507,-2.0,29.78,11111222 
TABS,ioos:station:wmo:42044:1,2002-09-08T02:00:00Z,26.1914,-97.0507,-2.0,29.79,11111222 
TABS,ioos:station:wmo:42044:1,2002-09-08T13:30:00Z,26.1914,-97.0507,-2.0,29.62,11111222 
TABS,ioos:station:wmo:42044:1,2002-09-08T14:00:00Z,26.1914,-97.0507,-2.0,29.62,11111222 
TABS,ioos:station:wmo:42044:1,2002-09-08T14:30:00Z,26.1914,-97.0507,-2.0,29.66,11111222 
TABS,ioos:station:wmo:42044:1,2002-09-08T15:00:00Z,26.1914,-97.0507,-2.0,29.65,11111222 
TABS,ioos:station:wmo:42044:1,2002-09-08T15:30:00Z,26.1914,-97.0507,-2.0,29.66,11111222 
TABS,ioos:station:wmo:42044:1,2002-09-08T16:00:00Z,26.1914,-97.0507,-2.0,29.7,11111222 
TABS,ioos:station:wmo:42044:1,2002-09-08T16:30:00Z,26.1914,-97.0507,-2.0,29.71,11111222 
TABS,ioos:station:wmo:42044:1,2002-09-08T17:00:00Z,26.1914,-97.0507,-2.0,29.75,11111222 
TABS,ioos:station:wmo:42044:1,2002-09-08T17:30:00Z,26.1914,-97.0507,-2.0,29.85,11111222 
TABS,ioos:station:wmo:42044:1,2002-09-08T18:00:00Z,26.1914,-97.0507,-2.0,29.89,11111222 
TABS,ioos:station:wmo:42044:1,2002-09-08T18:30:00Z,26.1914,-97.0507,-2.0,29.91,11111222 
TABS,ioos:station:wmo:42044:1,2002-09-08T19:00:00Z,26.1914,-97.0507,-2.0,29.93,11111222 
TABS,ioos:station:wmo:42044:1,2002-09-08T19:30:00Z,26.1914,-97.0507,-2.0,29.95,11111222 
TABS,ioos:station:wmo:42044:1,2002-09-08T20:00:00Z,26.1914,-97.0507,-2.0,29.99,11111222 
TABS,ioos:station:wmo:42044:1,2002-09-08T20:30:00Z,26.1914,-97.0507,-2.0,30.02,11111222 
TABS,ioos:station:wmo:42044:1,2002-09-08T21:00:00Z,26.1914,-97.0507,-2.0,30.05,11111222 
TABS,ioos:station:wmo:42044:1,2002-09-08T21:30:00Z,26.1914,-97.0507,-2.0,30.06,11111222 
TABS,ioos:station:wmo:42044:1,2002-09-08T22:00:00Z,26.1914,-97.0507,-2.0,30.09,11111222 
TABS,ioos:station:wmo:42044:1,2002-09-08T22:30:00Z,26.1914,-97.0507,-2.0,29.93,11111222 
TABS,ioos:station:wmo:42044:1,2002-09-08T23:00:00Z,26.1914,-97.0507,-2.0,29.85,11111222 
TABS,ioos:station:wmo:42044:1,2002-09-08T23:30:00Z,26.1914,-97.0507,-2.0,29.8,11111222 
TABS,ioos:station:wmo:42044:1,2002-09-09T00:00:00Z,26.1914,-97.0507,-2.0,29.75,11111222 
TABS,ioos:station:wmo:42044:1,2002-09-09T00:30:00Z,26.1914,-97.0507,-2.0,29.71,11111222 
TABS,ioos:station:wmo:42044:1,2002-09-09T01:00:00Z,26.1914,-97.0507,-2.0,29.69,11111222 
TABS,ioos:station:wmo:42044:1,2002-09-09T01:30:00Z,26.1914,-97.0507,-2.0,29.66,11111222 
TABS,ioos:station:wmo:42044:1,2002-09-09T13:30:00Z,26.1914,-97.0507,-2.0,29.43,11111222 
TABS,ioos:station:wmo:42044:1,2002-09-09T14:00:00Z,26.1914,-97.0507,-2.0,29.44,11111222 
TABS,ioos:station:wmo:42044:1,2002-09-09T14:30:00Z,26.1914,-97.0507,-2.0,29.43,11111222 
TABS,ioos:station:wmo:42044:1,2002-09-09T15:00:00Z,26.1914,-97.0507,-2.0,29.48,11111222 
TABS,ioos:station:wmo:42044:1,2002-09-09T15:30:00Z,26.1914,-97.0507,-2.0,29.44,11111222 
TABS,ioos:station:wmo:42044:1,2002-09-09T16:00:00Z,26.1914,-97.0507,-2.0,29.42,11111222 
TABS,ioos:station:wmo:42044:1,2002-09-09T16:30:00Z,26.1914,-97.0507,-2.0,29.44,11111222 
TABS,ioos:station:wmo:42044:1,2002-09-09T17:00:00Z,26.1914,-97.0507,-2.0,29.48,11111222 
TABS,ioos:station:wmo:42044:1,2002-09-09T17:30:00Z,26.1914,-97.0507,-2.0,29.51,11111222 
TABS,ioos:station:wmo:42044:1,2002-09-09T18:00:00Z,26.1914,-97.0507,-2.0,29.56,11111222 
TABS,ioos:station:wmo:42044:1,2002-09-09T18:30:00Z,26.1914,-97.0507,-2.0,29.6,11111222 
TABS,ioos:station:wmo:42044:1,2002-09-09T19:00:00Z,26.1914,-97.0507,-2.0,29.62,11111222 
TABS,ioos:station:wmo:42044:1,2002-09-09T19:30:00Z,26.1914,-97.0507,-2.0,29.71,11111222 
TABS,ioos:station:wmo:42044:1,2002-09-09T20:00:00Z,26.1914,-97.0507,-2.0,29.77,11111222 
TABS,ioos:station:wmo:42044:1,2002-09-09T20:30:00Z,26.1914,-97.0507,-2.0,29.79,11111222 
TABS,ioos:station:wmo:42044:1,2002-09-09T21:00:00Z,26.1914,-97.0507,-2.0,29.79,11111222 
TABS,ioos:station:wmo:42044:1,2002-09-09T21:30:00Z,26.1914,-97.0507,-2.0,29.76,11111222 
TABS,ioos:station:wmo:42044:1,2002-09-09T22:00:00Z,26.1914,-97.0507,-2.0,29.6,11111222 
TABS,ioos:station:wmo:42044:1,2002-09-09T22:30:00Z,26.1914,-97.0507,-2.0,29.63,11111222 
TABS,ioos:station:wmo:42044:1,2002-09-09T23:00:00Z,26.1914,-97.0507,-2.0,29.59,11111222 
TABS,ioos:station:wmo:42044:1,2002-09-09T23:30:00Z,26.1914,-97.0507,-2.0,29.58,11111222 
TABS,ioos:station:wmo:42044:1,2002-09-10T00:00:00Z,26.1914,-97.0507,-2.0,29.51,11111222 
TABS,ioos:station:wmo:42044:1,2002-09-10T00:30:00Z,26.1914,-97.0507,-2.0,29.59,11111222 
TABS,ioos:station:wmo:42044:1,2002-09-10T01:00:00Z,26.1914,-97.0507,-2.0,29.53,11111222 
TABS,ioos:station:wmo:42044:1,2002-09-10T01:30:00Z,26.1914,-97.0507,-2.0,29.43,11111222 
TABS,ioos:station:wmo:42044:1,2002-09-10T02:00:00Z,26.1914,-97.0507,-2.0,29.37,11111222 
TABS,ioos:station:wmo:42044:1,2002-09-10T14:00:00Z,26.1914,-97.0507,-2.0,29.28,11111222 
TABS,ioos:station:wmo:42044:1,2002-09-10T14:30:00Z,26.1914,-97.0507,-2.0,29.32,11111222 
TABS,ioos:station:wmo:42044:1,2002-09-10T15:00:00Z,26.1914,-97.0507,-2.0,29.28,11111222 
TABS,ioos:station:wmo:42044:1,2002-09-10T15:30:00Z,26.1914,-97.0507,-2.0,29.23,11111222 
TABS,ioos:station:wmo:42044:1,2002-09-10T16:00:00Z,26.1914,-97.0507,-2.0,29.09,11111222 
TABS,ioos:station:wmo:42044:1,2002-09-10T16:30:00Z,26.1914,-97.0507,-2.0,29.15,11111222 
TABS,ioos:station:wmo:42044:1,2002-09-10T17:00:00Z,26.1914,-97.0507,-2.0,29.25,11111222 
TABS,ioos:station:wmo:42044:1,2002-09-10T17:30:00Z,26.1914,-97.0507,-2.0,29.07,11111222 
TABS,ioos:station:wmo:42044:1,2002-09-10T18:00:00Z,26.1914,-97.0507,-2.0,29.14,11111222 
TABS,ioos:station:wmo:42044:1,2002-09-10T18:30:00Z,26.1914,-97.0507,-2.0,29.22,11111222 
TABS,ioos:station:wmo:42044:1,2002-09-10T19:00:00Z,26.1914,-97.0507,-2.0,29.26,11111222 
TABS,ioos:station:wmo:42044:1,2002-09-10T19:30:00Z,26.1914,-97.0507,-2.0,29.29,11111222 
TABS,ioos:station:wmo:42044:1,2002-09-10T20:00:00Z,26.1914,-97.0507,-2.0,29.28,11111222 
TABS,ioos:station:wmo:42044:1,2002-09-10T20:30:00Z,26.1914,-97.0507,-2.0,29.36,11111222 
TABS,ioos:station:wmo:42044:1,2002-09-10T21:00:00Z,26.1914,-97.0507,-2.0,29.42,11111222 
TABS,ioos:station:wmo:42044:1,2002-09-10T21:30:00Z,26.1914,-97.0507,-2.0,29.45,11111222 
TABS,ioos:station:wmo:42044:1,2002-09-10T22:00:00Z,26.1914,-97.0507,-2.0,29.48,11111222 
TABS,ioos:station:wmo:42044:1,2002-09-10T22:30:00Z,26.1914,-97.0507,-2.0,29.42,11111222 
TABS,ioos:station:wmo:42044:1,2002-09-10T23:00:00Z,26.1914,-97.0507,-2.0,29.37,11111222 
TABS,ioos:station:wmo:42044:1,2002-09-10T23:30:00Z,26.1914,-97.0507,-2.0,29.39,11111222 
TABS,ioos:station:wmo:42044:1,2002-09-11T00:00:00Z,26.1914,-97.0507,-2.0,29.36,11111222 